Weather History for Cincinnati, OH

Change the Weather History Date:

Saturday, April 20, 2013

  Actual Average Record
Temperature  
Mean Temperature 44 °F -  
Max Temperature 52 °F 69 °F 88 °F (1976)
Min Temperature 36 °F 45 °F 29 °F (1969)
Degree Days  
Heating Degree Days 22    
Moisture  
Dew Point 29 °F    
Average Humidity 60    
Maximum Humidity 89    
Minimum Humidity 35    
Precipitation  
Precipitation 0.00 in - - ()
Sea Level Pressure  
Sea Level Pressure 30.23 in    
Wind  
Wind Speed 9 mph (West)    
Max Wind Speed 14 mph    
Max Gust Speed 21 mph    
Visibility 10 miles    
Events      
Averages and records for this station are not official NWS values.
T = Trace of Precipitation, MM = Missing Value Source: NWS Daily Summary

Daily Weather History Graph

Daily Weather History Graph

Search for Another Location

Airport:

Trip Planner

Search our weather history database for the weather conditions in past years. The results will help you decide how hot, cold, wet, or windy it might be!

Date:

Astronomy

Apr. 20, 2013 Rise Set
Actual Time 6:53 AM EDT 8:20 PM EDT
Civil Twilight 6:25 AM EDT 8:48 PM EDT
Nautical Twilight 5:51 AM EDT 9:21 PM EDT
Astronomical Twilight 5:16 AM EDT 9:57 PM EDT
Moon 3:05 PM EDT (4/20) 3:40 AM EDT (4/20)
Length of Visible Light 14h 22m
Length of Day
13h 26m
Waxing Gibbous, 71% of the Moon is Illuminated
Apr 20
Waxing Gibbous
Apr 25
Full
May 2
Last Quarter
May 9
New
May 18
First Quarter

Hourly Weather History & Observations

Time (EDT) Temp. Windchill Dew Point Humidity Pressure Visibility Wind Dir Wind Speed Gust Speed Precip Events Conditions
12:53 AM 39.0 °F 31.4 °F 32.0 °F 76% 30.04 in 10.0 mi SW 12.7 mph 20.7 mph N/A   Partly Cloudy
1:53 AM 37.9 °F 32.1 °F 33.1 °F 83% 30.06 in 10.0 mi SW 8.1 mph - N/A   Scattered Clouds
2:53 AM 37.9 °F 32.1 °F 33.1 °F 83% 30.06 in 10.0 mi SW 8.1 mph - 0.00 in   Clear
3:53 AM 37.0 °F 31.0 °F 33.1 °F 86% 30.07 in 10.0 mi SW 8.1 mph - N/A   Scattered Clouds
4:53 AM 36.0 °F 31.1 °F 33.1 °F 89% 30.09 in 10.0 mi SW 5.8 mph - N/A   Partly Cloudy
5:53 AM 36.0 °F 29.0 °F 33.1 °F 89% 30.11 in 10.0 mi SSW 9.2 mph - N/A   Clear
6:53 AM 36.0 °F 30.3 °F 32.0 °F 86% 30.13 in 10.0 mi SW 6.9 mph - N/A   Partly Cloudy
7:53 AM 37.9 °F 32.7 °F 33.1 °F 83% 30.16 in 10.0 mi WSW 6.9 mph - N/A   Clear
8:53 AM 41.0 °F 34.7 °F 30.0 °F 65% 30.19 in 10.0 mi WNW 10.4 mph 19.6 mph N/A   Partly Cloudy
9:53 AM 42.1 °F 36.1 °F 30.0 °F 62% 30.22 in 10.0 mi NW 10.4 mph 17.3 mph N/A   Scattered Clouds
10:53 AM 44.1 °F 38.1 °F 28.0 °F 53% 30.25 in 10.0 mi WNW 11.5 mph 17.3 mph N/A   Scattered Clouds
11:53 AM 46.9 °F - 28.0 °F 48% 30.26 in 10.0 mi West 13.8 mph - N/A   Partly Cloudy
12:53 PM 48.0 °F - 28.0 °F 46% 30.27 in 10.0 mi WSW 13.8 mph 18.4 mph N/A   Partly Cloudy
1:53 PM 50.0 °F - 28.9 °F 44% 30.27 in 10.0 mi WNW 9.2 mph - N/A   Partly Cloudy
2:53 PM 50.0 °F - 28.0 °F 43% 30.28 in 10.0 mi SW 8.1 mph 18.4 mph N/A   Partly Cloudy
3:53 PM 50.0 °F - 26.1 °F 39% 30.29 in 10.0 mi Variable 4.6 mph 19.6 mph N/A   Scattered Clouds
4:53 PM 51.1 °F - 25.0 °F 36% 30.29 in 10.0 mi WNW 5.8 mph 17.3 mph N/A   Partly Cloudy
5:53 PM 51.1 °F - 24.1 °F 35% 30.30 in 10.0 mi WNW 8.1 mph 19.6 mph N/A   Partly Cloudy
6:53 PM 50.0 °F - 24.1 °F 36% 30.32 in 10.0 mi NW 8.1 mph - N/A   Clear
7:53 PM 46.9 °F - 25.0 °F 42% 30.32 in 10.0 mi North 10.4 mph - N/A   Clear
8:53 PM 45.0 °F 40.6 °F 25.0 °F 46% 30.35 in 10.0 mi North 8.1 mph - N/A   Clear
9:53 PM 42.1 °F 38.4 °F 26.1 °F 53% 30.39 in 10.0 mi NNE 5.8 mph - N/A   Clear
10:53 PM 39.9 °F 35.8 °F 27.0 °F 60% 30.41 in 10.0 mi NNE 5.8 mph - N/A   Clear
11:53 PM 37.9 °F 34.4 °F 27.0 °F 65% 30.43 in 10.0 mi ESE 4.6 mph - N/A   Clear